Weather History for KASE - September, 2013

Change the Weather History Date:

Monday, September 23, 2013

  Actual Average Record
Temperature  
Mean Temperature 44 °F 51 °F  
Max Temperature 54 °F 66 °F 77 °F (2001)
Min Temperature 34 °F 36 °F 24 °F (1985)
Degree Days  
Heating Degree Days 21 14  
Month to date heating degree days 166 239  
Since 1 July heating degree days 301 435  
Cooling Degree Days 0 0  
Month to date cooling degree days 9 0  
Year to date cooling degree days 69 39  
Moisture  
Dew Point 34 °F    
Average Humidity 71    
Maximum Humidity 100    
Minimum Humidity 41    
Precipitation  
Precipitation 0.38 in 0.07 in 0.46 in (1985)
Month to date precipitation 2.56 1.42  
Year to date precipitation 12.52 12.88  
Sea Level Pressure  
Sea Level Pressure 29.94 in    
Wind  
Wind Speed 7 mph (NW)    
Max Wind Speed 16 mph    
Max Gust Speed 25 mph    
Visibility 8 miles    
Events Rain    
T = Trace of Precipitation, MM = Missing Value Source: NWS Daily Summary

Daily Weather History Graph

Daily Weather History Graph

Search for Another Location

Airport or City:

Trip Planner

Search our weather history database for the weather conditions in past years. The results will help you decide how hot, cold, wet, or windy it might be!

Date:

Astronomy

Sep. 23, 2013 Rise Set
Actual Time 6:56 AM MDT 7:02 PM MDT
Civil Twilight 6:29 AM MDT 7:29 PM MDT
Nautical Twilight 5:58 AM MDT 8:00 PM MDT
Astronomical Twilight 5:26 AM MDT 8:31 PM MDT
Moon 9:38 PM MDT (9/23) 11:16 AM MDT (9/23)
Length of Visible Light 12h 59m
Length of Day
12h 06m
Waning Gibbous, 81% of the Moon is Illuminated
Sep 23
Waning Gibbous
Sep 26
Last Quarter
Oct 4
New
Oct 11
First Quarter
Oct 18
Full

Hourly Weather History & Observations

Time (MDT) Temp. Windchill Dew Point Humidity Pressure Visibility Wind Dir Wind Speed Gust Speed Precip Events Conditions
12:24 AM 39.2 °F 37.0 °F 37.4 °F 93% 29.87 in 7.0 mi NNW 3.5 mph - 0.01 in Rain Light Rain
12:53 AM 37.9 °F 33.5 °F 37.9 °F 100% 29.60 in 7.0 mi North 5.8 mph - 0.03 in Rain Light Rain
12:58 AM 37.4 °F 32.8 °F 37.4 °F 100% 29.87 in 8.0 mi North 5.8 mph - 0.01 in Rain Light Rain
1:35 AM 37.4 °F - 37.4 °F 100% 29.87 in 8.0 mi Calm Calm - 0.04 in Rain Rain
1:53 AM 37.0 °F - 36.0 °F 96% 29.68 in 9.0 mi Calm Calm - 0.05 in Rain Light Rain
2:02 AM 37.4 °F - 35.6 °F 93% 29.88 in 9.0 mi Calm Calm - 0.01 in Rain Light Rain
2:42 AM 37.4 °F - 37.4 °F 100% 29.90 in 10.0 mi Calm Calm - 0.05 in Rain Light Rain
2:53 AM 37.0 °F - 37.0 °F 100% 29.72 in 10.0 mi Calm Calm - 0.06 in Rain Light Rain
3:29 AM 35.6 °F - 35.6 °F 100% 29.91 in 10.0 mi Calm Calm - 0.03 in Rain Light Rain
3:53 AM 35.1 °F 32.2 °F 34.0 °F 96% 29.73 in 7.0 mi SW 3.5 mph - 0.05 in Rain Light Rain
4:01 AM 33.8 °F 29.6 °F 33.8 °F 100% 29.92 in 9.0 mi WSW 4.6 mph - 0.01 in Rain Light Rain
4:39 AM 35.6 °F - 33.8 °F 93% 29.95 in 7.0 mi Calm Calm - 0.04 in Rain Light Rain
4:53 AM 34.0 °F 29.8 °F 34.0 °F 100% 29.76 in 9.0 mi SE 4.6 mph - 0.05 in Rain Light Rain
5:53 AM 35.1 °F 31.0 °F 35.1 °F 100% 29.78 in 10.0 mi ESE 4.6 mph - 0.05 in   Overcast
6:53 AM 37.0 °F 32.4 °F 36.0 °F 96% 29.82 in 5.0 mi Variable 5.8 mph - 0.04 in Rain Light Rain
7:26 AM 37.4 °F 33.8 °F 37.4 °F 100% 30.00 in 3.0 mi North 4.6 mph - 0.03 in Rain Rain
7:51 AM 39.2 °F 35.0 °F 37.4 °F 93% 30.01 in 3.0 mi North 5.8 mph - 0.04 in Rain Light Rain
7:53 AM 39.0 °F 34.8 °F 37.9 °F 96% 29.86 in 3.0 mi North 5.8 mph - 0.04 in Rain Light Rain
8:53 AM 39.0 °F 32.8 °F 33.1 °F 79% 29.90 in 5.0 mi WNW 9.2 mph 24.2 mph 0.04 in Rain Light Rain
9:31 AM 39.2 °F 35.0 °F 33.8 °F 81% 30.08 in 7.0 mi North 5.8 mph - 0.02 in   Mostly Cloudy
9:53 AM 41.0 °F 38.0 °F 35.1 °F 79% 29.93 in 7.0 mi North 4.6 mph - 0.03 in   Mostly Cloudy
10:04 AM 39.2 °F - 35.6 °F 87% 30.09 in 10.0 mi Calm Calm - 0.01 in   Overcast
10:53 AM 44.1 °F 38.1 °F 36.0 °F 73% 29.92 in 10.0 mi NNW 11.5 mph 17.3 mph 0.03 in   Mostly Cloudy
11:36 AM 46.4 °F 40.1 °F 35.6 °F 66% 30.11 in 10.0 mi NNW 15.0 mph 20.7 mph 0.01 in   Mostly Cloudy
11:53 AM 46.0 °F 40.6 °F 35.1 °F 66% 29.93 in 10.0 mi NNW 11.5 mph 23.0 mph 0.02 in   Mostly Cloudy
12:53 PM 48.0 °F - 33.1 °F 56% 29.94 in 10.0 mi NNW 8.1 mph 18.4 mph 0.01 in   Mostly Cloudy
1:53 PM 50.0 °F - 30.9 °F 48% 29.95 in 10.0 mi NNW 8.1 mph 17.3 mph 0.01 in   Mostly Cloudy
2:53 PM 52.0 °F - 28.9 °F 41% 29.96 in 10.0 mi NNW 13.8 mph 24.2 mph N/A   Mostly Cloudy
3:53 PM 53.1 °F - 30.9 °F 43% 29.98 in 10.0 mi North 10.4 mph - 0.01 in   Scattered Clouds
4:53 PM 51.1 °F - 30.9 °F 46% 30.00 in 10.0 mi North 8.1 mph - N/A   Scattered Clouds
5:53 PM 50.0 °F - 30.9 °F 48% 30.01 in 10.0 mi NNW 3.5 mph - N/A   Scattered Clouds
6:53 PM 44.1 °F - 34.0 °F 68% 30.05 in 10.0 mi Calm Calm - N/A   Partly Cloudy
7:53 PM 41.0 °F 35.8 °F 35.1 °F 79% 30.10 in 10.0 mi SSW 8.1 mph - N/A   Partly Cloudy
8:53 PM 37.9 °F 31.5 °F 32.0 °F 79% 30.14 in 10.0 mi SW 9.2 mph - N/A   Clear
9:53 PM 37.0 °F 31.0 °F 32.0 °F 82% 30.16 in 10.0 mi SW 8.1 mph - N/A   Clear
10:53 PM 37.0 °F 31.0 °F 30.9 °F 79% 30.16 in 10.0 mi SW 8.1 mph - N/A   Clear
11:53 PM 34.0 °F 27.2 °F 30.0 °F 85% 30.17 in 10.0 mi SSW 8.1 mph - N/A   Clear